Content
SEND FEEDBACK

Mexico Flag

CHETUMAL, QUINTANA ROO


Home > North America > Mexico > Quintana Roo
Elevation: 30 feet     Latitude: 18 31N     Longitude: 088 18W

WEATHER
 
SELECT A DAY
Number of Records: 136,932;   Date Range: 1/1/95 - 3/22/16
 
SHARE

PRINT THIS DATA

[ ← Previous Day ]
WEATHER ALMANAC - JANUARY 30, 2013
[ Next Day → ]
[ °C ]   °F
Weather ElementAverageHighLow
Temperature81.7 °F88 °F (2:50 pm)73.4 °F (6:09 am)
Dewpoint73.5 °F77 °F (9:45 am)68 °F (6:09 am)
Humidity74.9 %94 % (6:45 am)54 % (2:50 pm)
Barometer29.90 in29.99 in (5:40 pm)29.85 in (3:40 pm)
Wind Speed8.8 mph17.3 mph (10:45 am)
Weather ElementAverage
Visibility6.5 mi
Wind DirectionE (91.9 °)

Weather ElementTotal
Precipitation---
Cooling Degree Days15.7 (Base 65)
Growing Degree Days30.7 (Base 50)
Averaged from 21 records on January 30, 2013
WEATHER CONDITIONS BREAKOUT
WIND DIRECTION BREAKOUT
WEATHER BY HOUR - JANUARY 30, 2013
[ °C ]   °F
Local TimeTemperatureDewpointHumidityBarometerVisibilityWind DirectionWind SpeedGust SpeedPrecipitationEventsConditions
5:45 AM77.0 °F74.0 °F88 %29.90 in5.0 miESE (110°)4.5 mphScattered Clouds
6:09 AM73.4 °F68.0 °F83 %29.89 in7.0 miCalmPartly Cloudy
6:45 AM75.2 °F73.4 °F94 %29.89 in7.0 miCalmScattered Clouds
7:45 AM80.6 °F73.4 °F79 %29.89 in7.0 miESE (120°)11.5 mphScattered Clouds
8:45 AM82.4 °F75.2 °F79 %29.91 in7.0 miESE (120°)11.5 mphScattered Clouds
8:50 AM82.0 °F74.0 °F72 %29.93 in6.0 miEast (90°)6.7 mphScattered Clouds
9:45 AM84.2 °F77.0 °F79 %29.90 in7.0 miESE (120°)11.5 mphScattered Clouds
10:45 AM86.0 °F77.0 °F74 %29.91 in7.0 miESE (120°)17.3 mphScattered Clouds
11:45 AM86.0 °F77.0 °F74 %29.91 in7.0 miESE (120°)17.3 mphScattered Clouds
11:50 AM87.0 °F73.0 °F55 %29.92 in6.0 miEast (90°)6.7 mphScattered Clouds
12:45 PM86.0 °F77.0 °F74 %29.88 in7.0 miESE (120°)17.3 mphScattered Clouds
1:45 PM87.8 °F77.0 °F70 %29.86 in7.0 miESE (120°)17.3 mphScattered Clouds
2:50 PM88.0 °F73.0 °F54 %29.88 in6.0 miEast (90°)6.7 mphScattered Clouds
3:40 PM82.4 °F73.4 °F74 %29.85 in7.0 miEast (90°)11.5 mphClear
4:40 PM82.4 °F73.4 °F74 %29.85 in7.0 miEast (100°)11.5 mphClear
5:40 PM80.6 °F69.8 °F70 %29.99 in7.0 miEast (90°)6.9 mphClear
5:50 PM81.0 °F72.0 °F68 %29.89 in6.0 miEast (90°)4.5 mphScattered Clouds
6:42 PM80.6 °F69.8 °F70 %29.89 in7.0 miEast (90°)6.9 mphClear
7:45 PM78.8 °F69.8 °F74 %29.92 in7.0 miEast (90°)6.9 mphClear
8:50 PM78.0 °F73.0 °F80 %29.96 in5.0 miENE (70°)4.5 mphScattered Clouds
11:50 PM77.0 °F74.0 °F87 %29.96 in5.0 miEast (90°)4.5 mphScattered Clouds
Hourly data recorded from MMCM, located miles away from Chetumal, Quintana Roo




STORIES FROM OUR PARTNERS